Change the Weather History Date:

Thursday, April 25, 2013

  Actual Average Record
Temperature  
Mean Temperature 55 °F 55 °F  
Max Temperature 68 °F 70 °F 86 °F (1996)
Min Temperature 42 °F 41 °F 24 °F (1960)
Degree Days  
Heating Degree Days 10    
Month to date heating degree days 291  
Since 1 July heating degree days 3801  
Cooling Degree Days 0    
Month to date cooling degree days 0  
Year to date cooling degree days 0  
Growing Degree Days 4 (Base 50)    
Moisture  
Dew Point 24 °F    
Average Humidity 30    
Maximum Humidity 49    
Minimum Humidity 16    
Precipitation  
Precipitation 0.01 in 0.02 in 0.31 in (2005)
Month to date precipitation 0.09 0.44  
Year to date precipitation 2.48 4.02  
Sea Level Pressure  
Sea Level Pressure 29.89 in    
Wind  
Wind Speed 8 mph (South)    
Max Wind Speed 24 mph    
Max Gust Speed 31 mph    
Visibility 10 miles    
Events Rain , Thunderstorm    
T = Trace of Precipitation, MM = Missing Value Source: NWS Daily Summary

Daily Weather History Graph

Daily Weather History Graph

Search for Another Location

Airport or City:

Trip Planner

Search our weather history database for the weather conditions in past years. The results will help you decide how hot, cold, wet, or windy it might be!

Date:

Astronomy

Apr. 25, 2013 Rise Set
Actual Time 5:45 AM MST 7:10 PM MST
Civil Twilight 5:19 AM MST 7:36 PM MST
Nautical Twilight 4:47 AM MST 8:08 PM MST
Astronomical Twilight 4:14 AM MST 8:41 PM MST
Moon 7:26 PM MST (4/25) 5:31 AM MST (4/25)
Length of Visible Light 14h 17m
Length of Day
13h 24m
Full, 100% of the Moon is Illuminated
Apr 25
Full
Apr 25
Full
May 2
Last Quarter
May 9
New
May 17
First Quarter

Hourly Weather History & Observations

Time (MST) Temp. Windchill Dew Point Humidity Pressure Visibility Wind Dir Wind Speed Gust Speed Precip Events Conditions
12:53 AM 48.0 °F - 23.0 °F 37% 29.83 in 10.0 mi SSW 9.2 mph - N/A   Clear
1:53 AM 48.9 °F - 24.1 °F 38% 29.82 in 10.0 mi South 5.8 mph - N/A   Clear
2:53 AM 48.0 °F - 27.0 °F 44% 29.82 in 10.0 mi SSW 5.8 mph - N/A   Clear
4:53 AM 42.1 °F 38.4 °F 24.1 °F 49% 29.84 in 10.0 mi South 5.8 mph - N/A   Clear
5:53 AM 43.0 °F 39.5 °F 23.0 °F 45% 29.84 in 10.0 mi South 5.8 mph - N/A   Clear
6:53 AM 48.0 °F - 24.1 °F 39% 29.84 in 10.0 mi SSW 5.8 mph - N/A   Clear
7:53 AM 57.9 °F - 21.9 °F 25% 29.83 in 10.0 mi ESE 6.9 mph - N/A   Clear
8:53 AM 61.0 °F - 21.0 °F 21% 29.83 in 10.0 mi SE 12.7 mph 19.6 mph N/A   Clear
9:53 AM 64.9 °F - 19.9 °F 18% 29.83 in 10.0 mi SE 16.1 mph 26.5 mph N/A   Clear
10:38 AM 62.6 °F - 19.4 °F 19% 30.02 in 10.0 mi SSW 12.7 mph 19.6 mph N/A   Mostly Cloudy
10:53 AM 62.1 °F - 21.0 °F 21% 29.86 in 10.0 mi Calm Calm - N/A   Scattered Clouds
11:53 AM 66.0 °F - 19.0 °F 17% 29.84 in 10.0 mi SE 19.6 mph 31.1 mph N/A   Scattered Clouds
12:53 PM 64.0 °F - 17.1 °F 16% 29.84 in 10.0 mi SE 16.1 mph - N/A   Mostly Cloudy
1:27 PM 60.8 °F - 21.2 °F 22% 30.01 in 10.0 mi Variable 5.8 mph 20.7 mph 0.00 in Rain , Thunderstorm Light Thunderstorms and Rain
1:49 PM 62.6 °F - 21.2 °F 20% 30.02 in 10.0 mi NE 4.6 mph - 0.00 in   Mostly Cloudy
1:53 PM 62.1 °F - 21.0 °F 21% 29.87 in 10.0 mi South 8.1 mph - 0.00 in   Mostly Cloudy
2:53 PM 64.0 °F - 21.9 °F 20% 29.86 in 10.0 mi South 5.8 mph - N/A   Scattered Clouds
3:53 PM 63.0 °F - 27.0 °F 26% 29.87 in 10.0 mi WSW 8.1 mph - N/A   Mostly Cloudy
4:53 PM 60.1 °F - 37.0 °F 42% 29.90 in 10.0 mi South 6.9 mph 17.3 mph 0.01 in   Scattered Clouds
5:53 PM 63.0 °F - 28.0 °F 27% 29.89 in 10.0 mi SW 8.1 mph - N/A   Clear
6:53 PM 60.1 °F - 28.0 °F 30% 29.90 in 10.0 mi SW 6.9 mph - N/A   Clear
7:53 PM 57.0 °F - 27.0 °F 32% 29.91 in 10.0 mi SW 8.1 mph - N/A   Clear
8:53 PM 55.0 °F - 26.1 °F 33% 29.95 in 10.0 mi SSW 10.4 mph - N/A   Clear
9:53 PM 53.1 °F - 27.0 °F 37% 29.96 in 10.0 mi SSW 9.2 mph - N/A   Clear
10:53 PM 52.0 °F - 30.0 °F 43% 29.98 in 10.0 mi South 6.9 mph - N/A   Clear
11:53 PM 52.0 °F - 28.0 °F 40% 29.99 in 10.0 mi SSE 8.1 mph - N/A   Clear